SL-8 DEB, 1549

Orbit data source: Space-Track

SL-8 DEB, 1549 is space debris in LEO originally from a launch on Mon, 15 Mar 1965 UTC launched from the Tyuratam Missile And Space Complex (TTMTR). Debris objects in space refer to the collection of defunct objects orbiting the Earth. Examples of debris include non-operational satellites, rocket bodies, and fragments generated from explosions, collisions, or faulty payload assembly.

Loading next visibility...
Identifier
1549, 1965-020CV
Orbit
LEO
Country
Flag of CISCIS
Related business
Manufacturer
Unknown
Mission
Spacecraft
Bus & Motor
Unknown
Mass
Unknown
Launch date (UTC)
1965-03-15 (61 years ago)
Launch vehicle
Unknown
Launch site
Tyuratam Missile And Space Complex (TTMTR)
Object type
Payload
Rocket body
Debris
Shape & HBR
Unknown shape, 0.1 m
Radar Cross Section
Medium (>0.1 m² and <1 m²)

Expand to show TLE details & history
Last TLE update: 15 hours ago

TLE from 15 hours ago
0 SL-8 DEB
1 01549U 65020CV  25310.97312241  .00000651  00000-0  10001-2 0  9998
2 01549  56.1616 185.9830 0841826 156.4176 207.7809 12.64307677786837
Epoch: 2025-11-06T23:21Z
TLE epoch observation values (Epoch: 2025-11-06T23:21:17.776Z)
Latitude
0.00006°
Longitude
149.23521°
Altitude
1,996.781 km
Speed
6.634 km/s
True Right ascension
12h 23m 55s
True Declination
0° 00' 00"
Sunlit
Object was in daylight at epoch
Visualization orbit readout
Latitude
Unknown
Longitude
Unknown
Altitude
Unknown
Speed
Unknown
Apparent Right ascension
Unknown
Apparent Declination
Unknown
Sunlit
N/A
Visualization observer readout
Local Sidereal Time
10:09:59
Azimuth
Unknown
Elevation
Unknown
Doppler factor
Unknown
Orbital elements
Apogee altitude
2,060.226 km
Perigee altitude
749.814 km
Semi-major axis
7,783.157 km
Eccentricity
0.08418
Inclination
56.1616°
RAAN
185.983°
Arg. of periapsis
156.4176°
True anomaly
203.67225°
Mean anomaly
207.7809°
Eccentric anomaly
205.68999°
Mean motion
3.16089 °/min
Orbital period
113.89 mins
BSTAR
0.0010001
Loading maneuver chart data...
Computing Atmospheric mass density...
Loading historical data...
Loading historical data...
Loading historical data...
Loading historical data...
Loading historical data...
Loading historical data...
Loading historical data...

Documentation

Showing up to 5 results
|